Weather History for KETH - May, 2013

Change the Weather History Date:

Monday, May 6, 2013

  Actual Average Record
Temperature  
Mean Temperature 54 °F -  
Max Temperature 66 °F 69 °F 83 °F (1953)
Min Temperature 42 °F 40 °F 26 °F (1976)
Degree Days  
Heating Degree Days 11    
Growing Degree Days 4 (Base 50)    
Moisture  
Dew Point 44 °F    
Average Humidity 75    
Maximum Humidity 93    
Minimum Humidity 49    
Precipitation  
Precipitation 0.00 in - - ()
Sea Level Pressure  
Sea Level Pressure 30.11 in    
Wind  
Wind Speed 2 mph (SSE)    
Max Wind Speed 7 mph    
Max Gust Speed -    
Visibility 10 miles    
Events      
Averages and records for this station are not official NWS values.
T = Trace of Precipitation, MM = Missing Value Source: NWS Daily Summary

Daily Weather History Graph

Daily Weather History Graph

Search for Another Location

Airport or City:

Trip Planner

Search our weather history database for the weather conditions in past years. The results will help you decide how hot, cold, wet, or windy it might be!

Date:

Astronomy

May. 06, 2013 Rise Set
Actual Time 6:05 AM CDT 8:40 PM CDT
Civil Twilight 5:32 AM CDT 9:14 PM CDT
Nautical Twilight 4:50 AM CDT 9:56 PM CDT
Astronomical Twilight 4:01 AM CDT 10:45 PM CDT
Moon 4:18 AM CDT (5/6) 5:33 PM CDT (5/6)
Length of Visible Light 15h 41m
Length of Day
14h 34m
Waning Crescent, 11% of the Moon is Illuminated
May 6
Waning Crescent
May 9
New
May 17
First Quarter
May 24
Full
May 31
Last Quarter

Hourly Weather History & Observations

Time (CDT) Temp. Windchill Dew Point Humidity Pressure Visibility Wind Dir Wind Speed Gust Speed Precip Events Conditions
12:15 AM 44.6 °F - 41.0 °F 87% 30.16 in 10.0 mi Calm Calm - N/A   Overcast
12:35 AM 44.6 °F - 41.0 °F 87% 30.16 in 10.0 mi Calm Calm - N/A   Overcast
12:55 AM 44.6 °F - 41.0 °F 87% 30.16 in 10.0 mi Calm Calm - N/A   Overcast
1:15 AM 44.6 °F 43.1 °F 41.0 °F 87% 30.16 in 10.0 mi SW 3.5 mph - N/A   Overcast
1:34 AM 44.6 °F 43.1 °F 41.0 °F 87% 30.16 in 10.0 mi WSW 3.5 mph - N/A   Overcast
1:54 AM 44.6 °F 43.1 °F 41.0 °F 87% 30.16 in 10.0 mi WSW 3.5 mph - N/A   Overcast
2:15 AM 42.8 °F 41.1 °F 41.0 °F 93% 30.16 in 10.0 mi SW 3.5 mph - N/A   Overcast
2:34 AM 42.8 °F 41.1 °F 41.0 °F 93% 30.15 in 10.0 mi SW 3.5 mph - N/A   Overcast
2:54 AM 42.8 °F - 41.0 °F 93% 30.15 in 10.0 mi Calm Calm - N/A   Overcast
3:15 AM 42.8 °F - 39.2 °F 87% 30.15 in 10.0 mi Calm Calm - N/A   Overcast
3:35 AM 42.8 °F - 41.0 °F 93% 30.15 in 10.0 mi Calm Calm - N/A   Overcast
3:54 AM 42.8 °F - 39.2 °F 87% 30.14 in 10.0 mi Calm Calm - N/A   Overcast
4:15 AM 42.8 °F - 39.2 °F 87% 30.15 in 10.0 mi Calm Calm - N/A   Overcast
4:35 AM 42.8 °F - 39.2 °F 87% 30.15 in 10.0 mi Calm Calm - N/A   Overcast
4:55 AM 42.8 °F - 41.0 °F 93% 30.15 in 10.0 mi Calm Calm - N/A   Overcast
5:15 AM 42.8 °F - 39.2 °F 87% 30.15 in 10.0 mi Calm Calm - N/A   Overcast
5:34 AM 42.8 °F - 39.2 °F 87% 30.15 in 10.0 mi Calm Calm - N/A   Overcast
5:55 AM 42.8 °F - 41.0 °F 93% 30.15 in 10.0 mi Calm Calm - N/A   Overcast
6:15 AM 42.8 °F - 41.0 °F 93% 30.15 in 10.0 mi Calm Calm - N/A   Overcast
6:35 AM 42.8 °F - 41.0 °F 93% 30.16 in 10.0 mi Calm Calm - N/A   Overcast
6:55 AM 42.8 °F - 41.0 °F 93% 30.16 in 10.0 mi Calm Calm - N/A   Overcast
7:15 AM 44.6 °F - 41.0 °F 87% 30.16 in 10.0 mi Calm Calm - N/A   Overcast
7:35 AM 44.6 °F - 41.0 °F 87% 30.16 in 10.0 mi Calm Calm - N/A   Overcast
7:55 AM 44.6 °F - 42.8 °F 93% 30.16 in 10.0 mi Calm Calm - N/A   Overcast
8:15 AM 44.6 °F - 42.8 °F 93% 30.17 in 10.0 mi Calm Calm - N/A   Mostly Cloudy
8:34 AM 44.6 °F 43.1 °F 42.8 °F 93% 30.17 in 10.0 mi West 3.5 mph - N/A   Mostly Cloudy
8:55 AM 46.4 °F - 42.8 °F 87% 30.17 in 10.0 mi Calm Calm - N/A   Scattered Clouds
9:15 AM 46.4 °F - 42.8 °F 87% 30.17 in 10.0 mi Calm Calm - N/A   Scattered Clouds
9:35 AM 48.2 °F - 42.8 °F 82% 30.16 in 10.0 mi WNW 3.5 mph - N/A   Mostly Cloudy
9:54 AM 48.2 °F - 42.8 °F 82% 30.16 in 10.0 mi NNW 3.5 mph - N/A   Mostly Cloudy
10:14 AM 50.0 °F - 44.6 °F 82% 30.16 in 10.0 mi Calm Calm - N/A   Mostly Cloudy
10:34 AM 51.8 °F - 44.6 °F 76% 30.16 in 10.0 mi SSE 3.5 mph - N/A   Mostly Cloudy
10:54 AM 53.6 °F - 44.6 °F 72% 30.15 in 10.0 mi Calm Calm - N/A   Scattered Clouds
11:14 AM 55.4 °F - 44.6 °F 67% 30.15 in 10.0 mi NW 3.5 mph - N/A   Scattered Clouds
11:35 AM 53.6 °F - 44.6 °F 72% 30.15 in 10.0 mi Calm Calm - N/A   Mostly Cloudy
11:54 AM 53.6 °F - 44.6 °F 72% 30.15 in 10.0 mi NW 3.5 mph - N/A   Mostly Cloudy
12:15 PM 55.4 °F - 46.4 °F 72% 30.14 in 10.0 mi East 3.5 mph - N/A   Scattered Clouds
12:34 PM 57.2 °F - 46.4 °F 67% 30.14 in 10.0 mi ESE 3.5 mph - N/A   Scattered Clouds
12:54 PM 57.2 °F - 46.4 °F 67% 30.13 in 10.0 mi Calm Calm - N/A   Scattered Clouds
1:14 PM 59.0 °F - 46.4 °F 63% 30.13 in 10.0 mi SSW 3.5 mph - N/A   Clear
1:34 PM 60.8 °F - 48.2 °F 63% 30.12 in 10.0 mi East 3.5 mph - N/A   Scattered Clouds
1:54 PM 60.8 °F - 48.2 °F 63% 30.12 in 10.0 mi East 3.5 mph - N/A   Clear
2:14 PM 60.8 °F - 48.2 °F 63% 30.11 in 10.0 mi Calm Calm - N/A   Clear
2:34 PM 62.6 °F - 48.2 °F 59% 30.10 in 10.0 mi Calm Calm - N/A   Clear
2:55 PM 62.6 °F - 48.2 °F 59% 30.10 in 10.0 mi ENE 4.6 mph - N/A   Clear
3:14 PM 62.6 °F - 48.2 °F 59% 30.09 in 10.0 mi ESE 4.6 mph - N/A   Clear
3:34 PM 64.4 °F - 48.2 °F 56% 30.09 in 10.0 mi Calm Calm - N/A   Clear
3:55 PM 64.4 °F - 48.2 °F 56% 30.08 in 10.0 mi SSE 6.9 mph - N/A   Clear
4:15 PM 64.4 °F - 48.2 °F 56% 30.07 in 10.0 mi SSW 3.5 mph - N/A   Clear
4:35 PM 66.2 °F - 48.2 °F 52% 30.06 in 10.0 mi SE 5.8 mph - N/A   Clear
4:54 PM 64.4 °F - 48.2 °F 56% 30.06 in 10.0 mi South 5.8 mph - N/A   Clear
5:14 PM 66.2 °F - 48.2 °F 52% 30.05 in 10.0 mi South 6.9 mph - N/A   Clear
5:54 PM 66.2 °F - 48.2 °F 52% 30.05 in 10.0 mi ESE 3.5 mph - N/A   Scattered Clouds
6:14 PM 66.2 °F - 48.2 °F 52% 30.05 in 10.0 mi SSE 3.5 mph - N/A   Scattered Clouds
6:35 PM 66.2 °F - 48.2 °F 52% 30.05 in 10.0 mi Calm Calm - N/A   Scattered Clouds
6:54 PM 66.2 °F - 46.4 °F 49% 30.04 in 10.0 mi SW 3.5 mph - N/A   Scattered Clouds
7:15 PM 66.2 °F - 46.4 °F 49% 30.04 in 10.0 mi SSE 6.9 mph - N/A   Clear
7:35 PM 64.4 °F - 46.4 °F 52% 30.04 in 10.0 mi South 5.8 mph - N/A   Clear
7:54 PM 64.4 °F - 46.4 °F 52% 30.04 in 10.0 mi SSE 5.8 mph - N/A   Clear
8:15 PM 62.6 °F - 46.4 °F 55% 30.04 in 10.0 mi SE 3.5 mph - N/A   Clear
8:35 PM 60.8 °F - 46.4 °F 59% 30.04 in 10.0 mi SE 4.6 mph - N/A   Clear
8:55 PM 60.8 °F - 46.4 °F 59% 30.04 in 10.0 mi SSE 3.5 mph - N/A   Clear
9:15 PM 59.0 °F - 46.4 °F 63% 30.04 in 10.0 mi SSE 3.5 mph - N/A   Clear
9:54 PM 55.4 °F - 46.4 °F 72% 30.05 in 10.0 mi Calm Calm - N/A   Clear
10:15 PM 53.6 °F - 46.4 °F 77% 30.05 in 10.0 mi SE 3.5 mph - N/A   Clear
10:35 PM 53.6 °F - 46.4 °F 77% 30.05 in 10.0 mi Calm Calm - N/A   Clear
10:54 PM 51.8 °F - 46.4 °F 82% 30.05 in 10.0 mi Calm Calm - N/A   Clear
11:15 PM 51.8 °F - 46.4 °F 82% 30.05 in 10.0 mi ESE 4.6 mph - N/A   Clear
11:35 PM 51.8 °F - 44.6 °F 76% 30.05 in 10.0 mi SE 3.5 mph - N/A   Clear
11:54 PM 50.0 °F - 44.6 °F 82% 30.05 in 10.0 mi SE 3.5 mph - N/A   Clear